Probability
0 0 0 0 0 0 0 0 0 0 0 0 0 0 0 0 0 0 0 0 0 0 0 0 0 0 0 0 0 0 0 0 0 0 0 0 0 0 0 0 0 0 0 0
0 0 0 0 0 0 0 0 0 0 0 0 0 0 0 0 0 0 0 0 0 0 0 0 0 0 0 0 0 0 0 0 0 0 0 0 0 0 0 0 0 0 0 0
0 0 0 0 0 0 0 0 0 0 0 0 0 0 0 0 0 0 0 0 0 0 0 0 0 0 0 0 0 0 0 0 0 0 0 0 0 0 0 0 0 0 0 0
0 0 0 0 0 0 0 0 0 0 0 0 0 0 0 0 0 0 0 0 0 0 0 0 0 0 0 0 0 0 0 0 0 0 0 0 0 0 0 0 0 0 0 0
0 0 0 0 0 0 0 0 0 0 0 0 0 0 0 0 0 0 0 0 0 0 0 0 0 0 0 0 0 0 0 0 0 0 0 0 0 0 0 0 0 0 0 0
0 0 0 0 0 0 0 0 0 0 0 0 0 0 0 0 0 0 0 0 0 0 0 0 0 0 0 0 0 0 0 0 0 0 0 0 0 0 0 0 0 0 0 0
0 0 0 0 0 0 0 0 0 0 0 0 0 0 0 0 0 0 0 0 0 0 0 0 0 0 0 0 0 0 0 0 0 0 0 0 0 0 0 0 0 0 0 0
0 0 0 0 0 0 0 0 0 0 0 0 0 0 0 0 0 0 0 0 0 0 0 0 0 0 0 0 0 0 0 0 0 0 0 0 0 0 0 0 0 0 0 0
0 0 0 0 0 0 0 0 0 0 0 0 0 0 0 0 0 0 0 0 0 0 0 0 0 0 0 0 0 0 0 0 0 0 0 0 0 0 0 0 0 0 0 0
0 0 0 0 0 0 0 0 0 0 0 0 0 0 0 0 0 0 0 0 0 0 0 0 0 0 0 0 0 0 0 0 0 0 0 0 0 0 0 0 0 0 0 0
0 0 0 0 0 0 0 0 0 0 0 0 0 0 0 0 0 0 0 0 0 0 0 0 0 0 0 0 0 0 0 0 0 0 0 0 0 0 0 0 0 0 0 0
0 0 0 0 0 0 0 0 0 0 0 0 0 0 0 0 0 0 0 0 0 0 0 0 0 0 0 0 0 0 0 0 0 0 0 0 0 0 0 0 0 0 0 0
0 0 0 0 0 0 0 0 0 0 0 0 0 0 0 0 0 0 0 0 0 0 0 0 0 0 0 0 0 0 0 0 0 0 0 0 0 0 0 0 0 0 0 0
0 0 0 0 0 0 0 0 0 0 0 0 0 0 0 0 0 0 0 0 0 0 0 0 0 0 0 0 0 0 0 0 0 0 0 0 0 0 0 0 0 0 0 0
0 0 0 0 0 0 0 0 0 0 0 0 0 0 0 0 0 0 0 0 0 0 0 0 0 0 0 0 0 0 0 0 0 0 0 0 0 0 0 0 0 0 0 0
0 0 0 0 0 0 0 0 0 0 0 0 0 0 0 0 0 0 0 0 0 0 0 0 0 0 0 0 0 0 0 0 0 0 0 0 0 0 0 0 0 0 0 0
0 0 0 0 0 0 0 0 0 0 0 0 0 0 0 0 0 0 0 0 0 0 0 0 0 0 0 0 0 0 0 0 0 0 0 0 0 0 0 0 0 0 0 0
0 0 0 0 0 0 0 0 0 0 0 0 0 0 0 0 0 0 0 0 0 0 0 0 0 0 0 0 0 0 0 0 0 0 0 0 0 0 0 0 0 0 0 0
0 0 0 0 0 0 0 0 0 0 0 0 0 0 0 0 0 0 0 0 0 0 0 0 0 0 0 0 0 0 0 0 0 0 0 0 0 0 0 0 0 0 0 0
0 0 0 0 0 0 0 0 0 0 0 0 0 0 0 0 0 0 0 0 0 0 0 0 0 0 0 0 0 0 0 0 0 0 0 0 0 0 0 0 0 0 0 0
0 0 0 0 0 0 0 0 0 0 0 0 0 0 0 0 0 0 0 0 0 0 0 0 0 0 0 0 0 0 0 0 0 0 0 0 0 0 0 0 0 0 0 0
0 0 0 0 0 0 0 0 0 0 0 0 0 0 0 0 0 0 0 0 0 0 0 0 0 0 0 0 0 0 0 0 0 0 0 0 0 0 0 0 0 0 0 0
0 0 0 0 0 0 0 0 0 0 0 0 0 0 0 0 0 0 0 0 0 0 0 0 0 0 0 0 0 0 0 0 0 0 0 0 0 0 0 0 0 0 0 0
0 0 0 0 0 0 0 0 0 0 0 0 0 0 0 0 0 0 0 0 0 0 0 0 0 0 0 0 0 0 0 0 0 0 0 0 0 0 0 0 0 0 0 0
0 0 0 0 0 0 0 0 0 0 0 0 0 0 0 0 0 0 0 0 0 0 0 0 0 0 0 0 0 0 0 0 0 0 0 0 0 0 0 0 0 0 0 0
0 0 0 0 0 0 0 0 0 0 0 0 0 0 0 0 0 0 0 0 0 0 0 0 0 0 0 0 0 0 0 0 0 0 0 0 0 0 0 0 0 0 0 0
0 0 0 0 0 0 0 0 0 0 0 0 0 0 0 0 0 0 0 0 0 0 0 0 0 0 0 0 0 0 0 0 0 0 0 0 0 0 0 0 0 0 0 0
Wind_Speed
28 27 22 23 22 19 20 19 22 23 23 23 27 25 19 15 14 11 10 10 12 13 13 12 13 14 16 17 16 15 16 18 20 18 15 14 16 16 17 17 17 17 15 14
25 26 27 31 31 32 34 31 30 29 30 26 24 23 25 26 20 14 13 14 14 13 13 13 14 16 16 17 16 15 18 19 16 14 14 16 16 16 16 16 15 15 16 16
22 20 23 26 25 32 29 25 27 31 22 15 16 19 20 15 19 19 19 20 21 21 21 18 16 16 17 17 13 14 17 15 13 15 16 17 16 17 18 17 16 16 16 16
14 14 26 13 8 18 25 26 19 12 16 17 19 21 7 17 22 22 20 20 18 19 22 23 21 17 14 10 9 13 13 13 14 16 16 16 17 18 18 15 16 16 16 16
11 19 18 3 12 15 13 3 15 13 14 17 20 19 4 19 21 17 16 15 13 13 14 19 20 18 11 6 6 9 12 14 15 16 16 17 19 18 14 15 14 14 13 13
9 15 13 5 14 19 14 4 13 12 13 16 18 15 14 22 23 18 16 14 14 15 14 15 17 15 11 6 4 8 8 8 9 11 13 15 15 13 10 12 13 13 12 11
10 10 5 3 9 11 6 8 11 8 9 10 10 10 16 20 18 14 14 15 16 16 14 13 13 12 11 9 7 4 1 5 8 9 11 11 11 11 12 12 13 12 12 11
3 6 8 9 13 5 7 7 7 9 8 9 11 13 14 16 18 18 18 16 15 16 17 13 10 9 11 12 7 2 3 5 7 8 8 9 11 12 13 14 14 12 12 11
6 8 14 18 11 9 4 4 4 6 8 11 13 15 16 16 18 19 19 18 16 16 19 16 11 8 11 12 5 2 3 5 7 8 8 9 11 12 12 12 12 12 12 12
8 12 13 14 15 5 1 2 4 5 7 9 12 15 16 16 16 18 18 17 16 18 19 19 16 12 12 10 6 7 8 8 9 10 10 10 10 11 12 13 13 13 13 13
11 16 14 11 8 3 2 3 6 8 9 11 12 15 16 15 15 15 17 16 16 16 19 21 20 19 15 9 7 10 10 10 11 12 12 12 12 12 14 13 15 15 13 13
15 15 12 13 6 2 3 5 7 11 14 13 12 16 17 16 16 16 18 17 17 19 20 21 19 20 18 11 9 11 10 11 10 10 10 10 11 10 19 16 21 23 19 15
20 13 9 11 8 2 4 7 10 12 14 16 15 14 16 17 18 18 18 18 19 20 21 22 22 23 19 14 12 14 14 12 10 10 11 11 11 11 11 15 21 23 22 22
6 3 7 5 4 7 8 11 12 13 14 14 13 11 11 15 18 19 19 18 19 22 23 22 23 25 18 16 16 16 15 14 12 11 11 12 12 11 11 12 13 12 18 24
4 2 5 8 10 9 10 12 14 16 16 15 11 11 12 16 19 19 18 17 20 22 22 21 24 24 16 16 18 17 14 11 11 10 10 10 11 11 11 12 12 12 13 18
6 4 5 8 12 14 14 14 15 19 19 19 18 16 17 19 20 20 17 16 19 21 19 20 23 22 17 17 18 15 13 14 12 11 11 11 12 12 13 13 13 14 14 14
5 6 7 9 14 16 15 14 16 18 19 20 20 20 19 19 20 19 17 15 17 20 19 20 22 20 18 17 17 12 9 10 14 11 10 11 12 12 13 13 13 13 12 15
4 8 10 13 15 18 20 18 17 19 20 21 21 20 19 19 20 20 19 18 17 16 16 16 17 19 16 13 8 5 6 7 9 9 9 10 10 11 11 12 13 14 13 16
8 10 12 14 15 16 18 19 20 20 20 19 20 20 19 19 19 19 17 16 15 14 12 13 18 14 9 5 3 4 6 8 8 8 8 11 11 10 11 11 12 13 13 12
10 11 13 15 15 15 17 18 18 19 18 18 19 19 17 16 15 15 13 12 9 9 11 11 10 8 7 7 8 6 7 8 8 8 8 9 9 10 10 11 12 12 11 11
12 12 14 15 16 15 15 17 17 18 17 17 17 16 16 15 14 11 9 8 8 9 8 9 6 6 6 7 8 7 8 8 8 8 8 9 9 10 10 10 10 10 10 10
11 12 14 14 15 15 13 13 14 15 15 14 13 14 13 11 10 8 7 6 7 8 6 5 5 7 8 9 7 8 8 9 8 8 8 8 9 10 10 10 10 9 9 9
12 13 14 13 14 14 14 11 12 12 12 11 11 11 10 9 8 7 6 7 6 7 6 5 7 11 11 8 8 8 9 9 9 8 8 8 9 9 10 10 9 9 9 8
11 11 12 12 11 10 10 11 10 8 8 8 8 8 8 7 6 7 7 10 12 11 8 8 12 13 11 7 8 8 8 9 9 8 9 8 8 8 8 8 8 7 7 8
10 10 10 9 7 6 8 9 8 7 7 5 7 8 6 5 5 5 6 8 10 10 8 10 13 12 9 7 8 8 7 7 8 8 8 8 7 7 7 7 7 6 6 5
8 7 6 7 6 5 5 5 5 5 5 5 5 6 6 5 6 6 6 8 9 9 8 7 7 8 7 7 8 8 8 8 8 8 8 7 7 7 6 6 7 5 5 4
8 6 6 6 5 5 4 4 5 5 5 5 5 6 6 6 6 7 8 8 8 8 8 8 8 8 8 8 9 9 9 8 8 8 7 7 6 6 6 6 4 4 3 3
Wind_Direction
247 249 247 251 257 255 247 243 248 253 254 256 267 278 290 293 282 271 269 271 267 265 260 248 236 230 224 225 216 205 202 204 207 203 195 184 181 179 176 175 177 175 171 171
263 256 252 250 252 256 257 258 260 264 265 266 276 288 291 291 303 330 342 337 323 300 278 261 245 238 228 225 215 199 203 208 203 188 182 182 179 175 173 172 172 171 173 171
286 289 283 263 251 256 260 264 266 268 280 320 329 316 312 353 28 18 5 357 351 343 327 301 275 255 243 230 210 197 204 203 189 181 181 180 175 174 174 173 171 175 175 175
272 273 266 269 253 258 263 265 285 328 17 12 352 322 6 40 11 354 349 344 339 335 333 324 303 280 259 241 203 198 200 195 185 183 181 175 175 178 176 171 175 178 179 179
266 267 269 292 8 338 299 296 41 23 12 6 354 338 357 6 349 331 327 324 321 320 322 326 324 316 296 255 207 197 199 195 188 183 178 177 181 181 173 170 174 177 176 177
281 283 284 30 350 329 304 188 44 25 11 358 356 342 319 327 325 323 323 326 324 322 321 325 328 330 322 297 237 218 210 192 176 177 178 182 181 173 166 166 169 171 173 174
258 260 235 104 354 13 3 307 336 347 343 335 325 296 295 308 315 317 316 317 319 317 315 316 321 329 328 314 289 283 177 149 158 171 175 172 165 164 161 163 164 170 164 166
296 268 248 357 1 352 281 282 305 318 325 319 307 303 306 312 315 318 317 316 316 314 313 313 315 319 312 300 294 290 149 150 159 163 163 163 162 162 164 164 165 168 164 166
220 255 294 306 304 293 284 290 292 300 313 316 311 310 316 317 314 313 314 314 315 313 311 310 310 298 291 291 283 215 175 172 166 162 164 167 167 166 169 171 172 176 176 175
267 271 274 283 288 273 297 285 297 295 298 302 300 303 305 306 305 306 306 308 314 315 311 308 310 301 283 277 233 205 197 187 177 174 175 174 174 174 180 184 184 182 183 178
260 274 279 265 255 234 240 273 288 296 297 297 298 298 301 301 298 298 301 306 308 306 303 302 305 303 300 279 223 216 208 194 186 186 184 184 189 193 195 199 195 186 184 177
259 264 270 279 265 241 265 284 295 300 299 299 297 295 296 293 295 298 299 302 304 301 297 297 300 298 300 291 241 222 215 204 196 191 191 189 190 199 212 205 209 203 193 182
262 272 265 271 281 286 307 305 300 293 291 293 291 287 288 290 294 296 297 299 297 296 295 296 295 289 289 289 262 234 222 208 198 193 191 190 188 188 193 199 202 200 190 179
246 233 261 265 300 329 316 307 300 290 284 279 283 283 283 287 290 291 293 296 297 294 291 290 288 284 287 285 270 248 231 213 200 195 191 189 186 185 184 179 180 179 176 169
57 1 301 315 311 310 313 309 303 298 301 299 298 295 293 292 291 291 294 294 289 286 285 284 282 282 282 274 270 257 237 218 202 192 187 184 182 180 178 176 169 159 153 161
357 349 333 314 309 310 310 307 303 301 305 305 306 303 301 297 293 292 289 284 282 282 282 281 280 281 277 267 262 255 237 214 190 182 179 178 178 179 175 170 164 160 159 156
4 336 322 306 304 301 299 298 298 299 301 301 301 302 300 296 293 292 289 282 279 281 284 286 289 291 286 272 257 246 225 197 177 173 176 175 174 175 171 165 163 159 151 159
313 285 283 285 292 299 303 305 303 300 297 298 300 299 298 296 295 295 294 291 288 286 287 289 294 294 293 286 262 219 176 162 163 166 165 167 167 164 160 159 157 150 153 157
299 292 292 292 294 295 294 296 297 297 298 298 297 296 294 292 291 293 295 296 295 295 295 298 307 315 317 329 47 92 122 135 142 145 149 152 151 151 152 153 154 159 156 141
302 301 299 297 294 290 290 292 295 295 295 296 296 296 296 296 298 298 299 297 293 296 302 311 320 335 1 35 58 75 98 112 120 125 130 136 139 143 146 150 152 146 136 132
302 300 298 296 294 292 289 291 293 297 301 303 304 306 307 306 306 304 306 307 309 313 318 331 345 4 29 50 61 73 86 97 106 113 119 124 128 131 136 139 136 132 130 128
298 297 295 294 294 295 293 294 298 304 308 312 316 315 314 317 320 317 311 311 312 327 337 349 11 44 58 61 66 77 86 93 100 106 113 120 126 130 133 133 129 126 124 125
292 290 292 293 293 294 299 305 311 312 316 323 325 328 331 331 333 337 337 339 338 3 12 24 60 66 66 66 74 82 88 93 98 104 110 116 121 126 127 126 123 124 125 124
290 291 290 289 290 297 309 317 317 318 322 325 335 343 346 343 349 358 355 1 14 21 27 47 65 72 72 72 78 85 90 95 99 102 104 105 108 111 115 119 119 118 119 120
293 292 292 300 309 314 316 319 321 327 337 343 351 357 360 359 353 347 355 5 14 24 27 41 58 66 67 74 80 84 87 91 99 102 101 104 106 108 109 112 114 116 117 121
306 309 314 318 321 324 325 327 332 340 345 347 351 354 353 352 356 360 4 10 17 26 31 32 38 48 55 63 68 72 75 79 80 82 89 94 97 97 98 99 101 104 110 115
329 339 341 342 345 345 343 345 350 352 355 358 360 0 1 3 10 14 16 18 21 26 28 32 36 42 47 51 55 57 59 62 65 69 72 74 77 81 88 92 96 103 114 131